Total_Precipitation_Accumulation
0.36 0.33 0.26 0.04 0.00 0.00 0.00 0.02 0.04 0.04 -0.02 -0.05 -0.06 -0.06 -0.01 -0.00 -0.00 0.00 0.00 0.00 0.00 0.00 0.05 0.09 0.16 0.16 0.21 0.20 0.06 0.06 0.02 0.02 0.00 0.00 0.00 0.00 0.00 0.00 0.00 0.00 0.00 0.00 0.00 0.00 0.00 0.00 0.00 0.00 0.00 0.00 0.00 0.00 0.00 0.00 0.00 0.00 0.00 0.00 0.00 0.01 0.01 0.02 0.04 0.04 0.02 0.02 0.00 0.00 0.00 0.00 0.00 0.00 0.00 0.00 0.00 -0.01 -0.01 0.00 0.00 0.00 0.00 0.00 0.02 0.02 0.00 0.00 0.00 0.00 0.00 0.00 0.00 0.03 0.07 0.07 0.09 0.04 0.04 0.03 0.02 0.00 0.00 0.00 0.00
0.35 0.33 0.28 0.07 0.00 0.00 0.00 0.02 0.05 0.05 -0.03 -0.04 -0.05 -0.05 -0.00 -0.00 -0.00 0.00 0.00 0.00 0.00 0.00 0.07 0.10 0.17 0.17 0.17 0.20 0.04 0.04 0.02 0.02 0.01 0.01 0.00 0.00 0.00 0.00 0.00 0.00 0.00 0.00 0.00 0.00 0.00 0.00 0.00 0.00 0.00 0.00 0.00 0.00 0.00 0.00 0.00 0.00 0.00 0.00 0.00 0.01 0.01 0.02 0.04 0.03 0.00 0.00 0.00 0.00 0.00 0.00 0.00 -0.13 -0.10 -0.10 -0.03 -0.03 -0.03 0.00 0.00 0.00 0.00 0.00 0.00 0.01 0.00 0.00 0.00 0.00 0.00 0.00 0.02 0.04 0.11 0.11 0.09 0.02 0.02 0.01 0.00 0.00 0.00 0.00 0.00
0.32 0.33 0.29 0.11 0.04 0.04 -0.00 0.01 0.04 0.04 -0.04 -0.04 -0.03 -0.03 -0.00 0.00 0.00 0.00 0.00 0.00 0.00 0.00 0.05 0.10 0.17 0.17 0.15 0.14 0.03 0.03 0.02 0.02 0.00 0.00 0.00 0.00 0.00 0.00 0.00 0.00 0.00 0.00 0.00 0.00 0.00 0.00 0.00 0.00 0.00 0.00 0.00 0.00 0.00 0.00 0.00 0.00 0.00 0.00 0.00 0.01 0.01 0.03 0.04 0.02 0.01 0.01 -0.01 -0.02 -0.05 -0.05 -0.08 -0.09 -0.11 -0.11 -0.05 -0.00 -0.00 -0.01 -0.00 0.00 0.00 0.00 0.00 0.00 0.00 0.00 0.00 0.00 0.00 0.00 0.01 0.10 0.10 0.10 0.04 0.00 0.00 0.00 0.00 -0.00 -0.00 -0.00 0.00
0.29 0.32 0.31 0.13 0.07 0.07 -0.00 0.00 0.02 0.02 -0.03 -0.04 -0.02 -0.02 -0.00 0.00 0.00 0.00 0.00 0.00 0.00 0.00 0.05 0.10 0.18 0.18 0.16 0.18 0.03 0.03 0.02 0.01 0.00 0.00 0.00 0.00 0.00 0.00 0.00 0.00 0.00 0.00 0.00 0.00 0.00 0.00 0.00 0.00 0.00 0.00 0.00 0.00 0.00 0.00 0.00 0.00 0.00 0.00 0.00 0.01 0.01 0.03 0.03 0.01 -0.01 -0.01 -0.04 -0.05 -0.06 -0.06 -0.08 0.00 0.00 0.00 0.00 -0.02 -0.02 -0.08 -0.06 0.00 0.00 0.00 0.00 0.00 0.00 0.00 0.00 -0.00 0.01 0.01 0.02 0.09 0.05 0.05 0.03 0.00 0.00 0.00 0.00 -0.03 -0.03 -0.07 -0.00
0.30 0.28 0.30 0.17 0.09 0.09 0.01 0.00 0.03 0.03 -0.02 -0.01 -0.01 -0.01 0.00 0.00 0.00 0.00 -0.00 0.00 0.00 0.01 0.06 0.11 0.17 0.17 0.14 0.20 0.03 0.03 0.02 0.00 0.00 0.00 0.00 0.00 0.00 0.00 0.00 0.00 0.00 0.00 0.00 0.00 0.00 0.00 -0.00 -0.00 0.00 0.00 0.00 0.00 0.00 0.00 0.00 0.00 0.00 0.00 0.00 0.01 0.01 0.01 0.03 0.03 0.01 0.01 0.00 0.00 0.00 0.00 0.00 0.00 0.00 0.00 -0.00 -0.02 -0.02 -0.03 -0.03 0.00 0.00 0.00 0.00 0.00 0.00 0.00 -0.00 -0.02 -0.00 -0.00 0.07 0.09 0.03 0.03 0.01 0.00 0.00 0.00 -0.00 0.00 0.00 0.00 -0.00
0.34 0.27 0.26 0.22 0.11 0.11 0.03 -0.00 0.01 0.01 -0.02 -0.03 -0.00 -0.00 0.00 0.00 0.00 0.00 0.00 0.00 0.00 0.02 0.07 0.11 0.15 0.15 0.15 0.23 0.13 0.13 0.01 0.01 0.00 0.00 0.00 0.00 0.00 0.00 0.00 0.00 0.00 0.00 0.00 0.00 0.00 0.00 0.00 -0.00 0.00 0.00 0.00 0.00 0.00 0.00 0.00 0.00 0.00 0.00 0.00 0.00 0.00 0.00 0.02 0.02 0.00 0.00 0.00 0.00 0.00 0.00 0.00 0.00 0.00 0.00 -0.01 0.00 0.00 0.00 0.00 0.00 0.00 0.00 0.00 0.00 0.00 0.00 -0.01 -0.06 -0.05 -0.05 0.10 0.06 0.03 0.03 0.00 0.00 0.00 0.00 0.00 0.00 0.00 0.00 0.00
0.39 0.33 0.26 0.23 0.16 0.16 0.06 -0.01 -0.01 -0.01 -0.03 0.01 -0.00 -0.00 0.00 0.00 0.00 -0.00 -0.00 0.00 0.00 0.04 0.08 0.06 0.12 0.12 0.15 0.18 0.11 0.11 0.01 0.00 0.00 0.00 0.00 0.00 0.00 0.00 0.00 0.00 0.00 0.00 0.00 0.00 0.00 0.00 -0.00 -0.00 0.00 0.00 0.00 0.00 0.00 0.00 0.00 0.00 0.00 0.00 0.00 0.00 0.00 0.00 0.00 0.00 0.00 0.00 0.00 0.00 0.00 0.00 0.00 0.00 0.00 0.00 0.00 0.00 0.00 0.00 0.00 0.00 0.00 0.00 0.00 0.00 0.00 0.00 0.00 -0.01 -0.02 -0.02 0.06 0.02 0.01 0.01 0.00 0.00 0.00 0.00 0.00 0.00 0.00 0.00 0.00
0.44 0.46 0.32 0.23 0.14 0.14 0.09 -0.02 -0.02 -0.02 -0.02 -0.01 0.02 0.02 0.00 0.00 0.00 0.00 0.00 0.00 0.00 0.00 0.08 0.06 0.13 0.13 0.13 0.13 0.08 0.08 0.01 0.00 0.00 0.00 0.00 0.00 0.00 0.00 0.00 0.00 0.00 0.00 0.00 0.00 0.00 0.00 0.00 -0.00 0.00 0.00 0.00 0.00 0.00 0.00 0.00 0.00 0.00 0.00 0.00 0.00 0.00 0.00 0.00 0.00 0.00 0.00 0.00 0.00 0.00 0.00 0.00 0.00 0.00 0.00 0.00 0.00 0.00 0.00 0.00 0.00 0.00 0.00 0.00 0.00 0.00 0.00 0.01 0.03 0.00 0.00 0.02 0.00 0.00 0.00 0.00 0.00 0.00 0.00 0.00 0.00 0.00 0.00 0.00
0.60 0.53 0.41 0.31 0.14 0.14 0.09 -0.02 -0.06 -0.06 0.08 0.08 0.02 0.02 0.00 0.00 0.00 0.00 0.00 0.00 0.00 0.00 0.08 0.06 0.17 0.17 0.11 0.10 0.04 0.04 0.04 0.00 0.00 0.00 0.00 0.00 0.00 0.00 0.00 0.00 0.00 0.00 0.00 0.00 0.00 0.00 0.00 -0.00 0.00 0.00 0.00 0.00 0.00 0.00 0.00 0.00 0.00 0.00 0.00 0.00 0.00 0.00 0.00 0.00 0.00 0.00 0.00 0.00 0.00 0.00 0.00 0.00 0.00 0.00 0.00 0.00 0.00 0.00 0.00 0.00 0.00 0.00 0.00 0.00 0.00 0.00 0.01 0.04 0.04 0.04 0.02 0.00 0.00 0.00 0.00 0.00 0.00 0.00 0.00 0.00 0.00 0.00 0.00
0.65 0.58 0.43 0.37 0.15 0.15 0.09 -0.03 -0.06 -0.06 0.08 0.13 0.09 0.09 0.01 0.01 0.01 0.00 0.00 0.00 0.00 0.00 0.09 0.08 0.21 0.21 0.12 0.14 0.03 0.03 0.03 0.00 0.00 0.00 0.00 0.00 0.00 0.00 0.00 0.00 0.00 0.00 0.00 0.00 0.00 0.00 -0.00 -0.00 -0.00 -0.00 0.00 0.00 0.00 0.00 0.00 0.00 0.00 0.00 0.00 0.00 0.00 0.00 0.00 0.00 0.00 0.00 0.00 0.00 0.00 0.00 0.00 0.00 0.00 0.00 0.00 0.00 0.00 0.00 0.00 0.00 0.00 0.00 0.00 0.00 0.00 0.00 0.01 0.03 0.02 0.02 0.02 0.00 0.00 0.00 0.00 0.00 0.00 0.00 0.00 0.00 0.00 0.00 0.00
0.74 0.65 0.51 0.44 0.17 0.17 0.10 -0.05 -0.07 -0.07 0.10 0.03 0.16 0.16 0.02 0.02 0.02 0.00 0.00 0.00 0.00 0.00 0.10 0.09 0.11 0.11 0.16 0.14 0.02 0.02 0.01 0.00 0.00 0.00 0.00 0.00 0.00 0.00 0.00 0.00 0.00 0.00 0.00 0.00 0.00 0.00 -0.00 -0.00 -0.00 -0.00 0.00 0.00 0.00 0.00 0.00 0.00 0.00 0.00 0.00 0.00 0.00 0.00 0.00 0.00 0.00 0.00 0.00 0.00 0.00 0.00 0.00 0.00 0.00 0.00 0.00 0.00 0.00 0.00 0.00 0.00 0.00 0.00 0.00 0.00 0.00 0.00 0.03 0.02 0.01 0.01 0.01 0.00 0.00 0.00 0.00 0.00 0.00 0.00 0.00 0.00 0.00 0.00 0.00
0.83 0.74 0.56 0.51 0.30 0.30 0.12 0.05 -0.08 -0.08 0.06 0.19 0.20 0.20 0.05 0.02 0.02 0.00 0.00 0.00 0.00 0.00 0.10 0.10 0.15 0.15 0.15 0.12 0.04 0.04 0.00 0.00 0.00 0.00 0.00 0.00 0.00 0.00 0.00 0.00 0.00 0.00 0.00 0.00 0.00 0.00 -0.00 -0.00 -0.00 -0.00 0.00 0.00 0.00 0.00 0.00 0.00 0.00 0.00 0.00 0.00 0.00 0.00 0.00 0.00 0.00 0.00 0.00 0.00 0.00 0.00 0.00 0.00 0.00 0.00 0.00 0.00 0.00 0.00 0.00 0.00 0.00 0.00 0.00 0.00 0.00 0.00 0.01 0.02 0.01 0.01 0.00 0.00 0.00 0.00 0.00 0.00 0.00 0.00 0.00 0.00 0.00 0.00 0.00
0.94 0.79 0.60 0.54 0.47 0.47 0.18 0.05 -0.07 -0.07 0.05 0.29 0.24 0.24 0.05 0.02 0.02 0.02 0.00 0.00 0.00 0.00 0.10 0.10 0.16 0.16 0.12 0.10 0.12 0.12 0.00 0.00 0.00 0.00 0.00 0.00 0.00 0.00 0.00 0.00 0.00 0.00 0.00 0.00 -0.00 -0.00 -0.00 -0.00 -0.00 -0.00 0.00 0.00 0.00 0.00 0.00 0.00 0.00 0.00 0.00 0.00 0.00 0.00 0.00 0.00 0.00 0.00 0.00 0.00 0.00 0.00 0.00 0.00 0.00 0.00 0.00 0.00 0.00 0.00 0.00 0.00 0.00 0.00 0.00 0.01 0.00 0.00 0.01 0.01 0.00 0.00 0.00 0.00 0.00 0.00 0.00 0.00 0.00 0.00 0.00 0.00 0.00 0.00 0.00
1.01 0.91 0.78 0.54 0.47 0.47 0.25 0.08 -0.03 -0.03 0.05 0.27 0.33 0.33 0.13 0.02 0.02 0.01 0.00 0.00 0.00 0.00 0.10 0.11 0.16 0.16 0.15 0.09 0.10 0.10 0.00 0.00 0.00 0.00 0.00 0.00 0.00 0.00 0.00 0.00 0.00 0.00 0.00 0.00 -0.00 -0.00 -0.00 -0.00 0.00 0.00 0.00 0.00 0.00 0.00 0.00 0.00 0.00 0.00 0.00 0.00 0.00 0.00 0.00 0.00 0.00 0.00 0.00 0.00 0.00 0.00 0.00 0.00 0.00 0.00 0.00 0.00 0.00 0.00 0.00 0.00 0.00 0.00 0.00 0.00 0.00 0.00 0.01 0.01 0.00 0.00 0.00 0.00 0.00 0.00 0.00 0.00 0.00 0.00 0.00 0.00 0.00 0.00 0.00
1.18 0.99 0.90 0.60 0.52 0.52 0.31 0.14 0.01 0.01 0.01 0.24 0.34 0.34 0.20 0.08 0.08 0.02 0.00 0.00 0.00 0.00 0.12 0.11 0.16 0.16 0.13 0.09 0.07 0.07 0.00 0.00 0.00 0.00 0.00 0.00 0.00 0.00 0.00 0.00 0.00 0.00 0.00 0.00 0.00 0.00 0.00 0.00 0.00 0.00 0.00 0.00 0.00 0.00 0.00 0.00 0.00 0.00 0.00 0.00 0.00 0.00 0.00 0.00 0.00 0.00 0.00 0.00 0.00 0.00 0.00 0.00 0.00 0.00 0.00 0.00 0.00 0.00 0.00 0.00 0.00 0.00 0.00 0.00 0.00 0.00 0.01 0.00 0.00 0.00 0.00 0.00 0.00 0.00 0.00 0.00 0.00 0.00 0.00 0.00 0.00 0.00 0.00
1.14 1.07 0.95 0.64 0.55 0.55 0.34 0.17 0.02 0.02 -0.01 0.22 0.34 0.34 0.24 0.18 0.18 0.05 0.01 0.00 0.00 0.00 0.13 0.11 0.16 0.16 0.12 0.07 0.05 0.05 0.02 0.00 0.00 0.00 0.00 0.00 0.00 0.00 0.00 0.00 0.00 0.00 0.00 0.00 0.00 0.00 0.00 0.00 0.00 0.00 0.00 0.00 0.00 0.00 0.00 0.00 0.00 0.00 0.00 0.00 0.00 0.00 0.00 0.00 0.00 0.00 0.00 0.00 0.00 0.00 0.00 0.00 0.00 0.00 0.00 0.00 0.00 0.00 0.00 0.00 0.00 0.00 0.00 0.00 0.00 0.00 0.00 0.00 0.00 0.00 0.00 0.00 0.00 0.00 0.00 0.00 0.00 0.00 -0.00 0.00 0.00 0.00 0.00
1.13 1.14 0.99 0.78 0.61 0.61 0.37 0.26 0.11 0.11 -0.01 0.13 0.40 0.40 0.27 0.27 0.27 0.09 0.00 0.00 0.00 0.01 0.13 0.12 0.14 0.14 0.12 0.08 0.03 0.03 0.01 0.00 0.00 0.00 0.00 0.00 0.00 0.00 0.00 0.00 0.00 0.00 0.00 0.00 0.00 0.00 0.00 0.00 0.00 0.00 0.00 0.00 0.00 0.00 -0.00 -0.00 -0.00 0.00 0.00 0.00 0.00 0.00 0.00 0.00 0.00 0.00 0.00 0.00 0.00 0.00 0.00 0.00 0.00 0.00 0.00 0.00 0.00 0.00 0.00 0.00 0.00 0.00 0.00 0.00 0.00 0.00 0.00 0.00 0.00 0.00 0.00 0.00 0.00 0.00 0.00 0.00 0.00 0.00 0.00 0.00 0.00 0.00 0.00
1.03 1.16 1.08 0.90 0.75 0.75 0.39 0.27 0.12 0.12 0.01 0.15 0.40 0.40 0.33 0.30 0.30 0.22 0.01 0.00 0.00 0.00 0.13 0.11 0.10 0.10 0.10 0.07 0.02 0.02 0.01 0.00 0.00 0.00 0.00 0.00 0.00 0.00 0.00 0.00 0.00 0.00 0.00 0.00 0.00 0.00 0.00 0.00 0.00 0.00 0.00 0.00 0.00 0.00 -0.00 0.00 0.00 0.00 0.00 0.00 0.00 0.00 0.00 0.00 0.00 0.00 0.00 0.00 0.00 0.00 0.00 0.00 0.00 0.00 0.00 0.00 0.00 0.00 0.00 0.00 0.00 0.00 0.00 0.00 -0.01 -0.01 0.00 -0.00 0.00 0.00 0.00 0.00 0.00 0.00 0.00 0.00 0.00 0.00 0.00 0.00 0.00 0.00 0.00
0.90 1.12 1.07 0.96 0.85 0.85 0.66 0.28 0.16 0.16 0.08 0.13 0.40 0.40 0.35 0.38 0.38 0.25 0.13 -0.00 -0.00 0.00 0.11 0.09 0.07 0.07 0.08 0.06 0.01 0.01 0.00 0.00 0.00 0.00 0.00 0.00 0.00 0.00 0.00 0.00 0.00 0.00 0.00 0.00 0.00 0.00 0.00 0.00 0.00 0.00 0.00 0.00 -0.00 -0.00 -0.00 0.00 0.00 0.00 0.00 0.00 0.00 0.00 0.00 0.00 0.00 0.00 0.00 0.00 0.00 0.00 0.00 0.00 0.00 0.00 0.00 0.00 0.00 0.00 0.00 0.00 0.00 0.00 0.00 0.00 -0.00 -0.00 -0.01 -0.00 -0.00 -0.00 0.00 -0.00 0.00 0.00 0.00 0.00 0.00 0.00 0.00 0.00 0.00 0.00 0.00
1.12 1.02 1.02 1.04 0.81 0.81 0.74 0.35 0.22 0.22 0.13 0.15 0.34 0.34 0.54 0.50 0.50 0.30 0.22 0.03 0.03 -0.01 0.02 0.04 0.03 0.03 0.12 0.08 0.02 0.02 0.00 0.00 0.00 0.00 0.00 0.00 0.00 0.00 0.00 0.00 0.00 0.00 0.00 0.00 0.00 0.00 0.00 0.00 0.00 0.00 0.00 0.00 0.00 0.00 0.00 0.00 0.00 0.00 0.00 0.00 0.00 0.00 0.00 0.00 0.00 0.00 0.00 0.00 0.00 0.00 0.00 0.00 0.00 0.00 0.00 0.00 0.00 0.00 0.00 0.00 0.00 0.00 0.00 0.00 0.00 0.00 0.00 -0.00 -0.01 -0.01 -0.02 -0.05 -0.05 -0.05 -0.01 -0.03 -0.03 0.00 0.00 0.00 0.00 0.00 0.00
1.15 1.20 1.12 1.05 0.89 0.89 0.75 0.41 0.28 0.28 0.22 0.15 0.43 0.43 0.57 0.78 0.78 0.46 0.31 0.07 0.07 -0.01 -0.01 0.03 0.01 0.01 0.07 0.07 0.02 0.02 0.00 0.00 0.00 0.00 0.00 0.00 0.00 0.00 0.00 0.00 0.00 0.00 0.00 0.00 0.00 0.00 0.00 0.00 0.00 0.00 0.00 0.00 0.00 0.00 0.00 0.00 0.00 0.00 0.00 0.00 0.00 0.00 0.00 0.00 0.00 0.00 0.00 0.00 0.00 0.00 0.00 0.00 0.00 0.00 0.00 0.00 0.00 0.00 0.00 0.00 0.00 0.00 0.00 0.00 0.00 0.00 0.00 0.00 -0.00 -0.00 -0.02 -0.02 -0.07 -0.07 -0.11 -0.05 -0.05 -0.01 0.00 0.00 0.00 0.00 0.00
1.17 1.28 1.17 1.13 1.01 1.01 0.88 0.42 0.31 0.31 0.24 0.11 0.32 0.32 0.66 0.83 0.83 0.69 0.35 0.20 0.20 0.01 -0.01 0.00 0.01 0.01 0.04 0.06 0.01 0.01 0.00 0.00 0.00 0.00 0.00 0.00 0.00 0.00 0.00 0.00 0.00 0.00 0.00 0.00 0.00 0.00 0.00 0.00 0.00 0.00 0.00 0.00 0.00 0.00 0.00 0.00 0.00 0.00 0.00 0.00 0.00 0.00 0.00 0.00 0.00 0.00 0.00 0.00 0.00 0.00 0.00 0.00 0.00 0.00 0.00 0.00 0.00 0.00 0.00 0.00 0.00 0.00 0.00 0.00 0.00 0.00 0.00 0.00 0.00 0.00 -0.00 -0.03 -0.01 -0.01 -0.05 -0.04 -0.04 -0.01 0.00 0.00 0.00 0.00 0.00
1.36 1.23 1.11 1.05 0.98 0.98 0.95 0.50 0.32 0.32 0.30 0.15 0.26 0.26 0.71 0.68 0.68 0.65 0.48 0.17 0.17 0.02 -0.01 0.00 0.01 0.01 0.02 0.03 0.01 0.01 0.00 0.00 0.00 0.00 0.00 0.00 0.00 0.00 0.00 0.00 0.00 0.00 0.00 0.00 0.00 0.00 0.00 0.00 0.00 0.00 0.00 0.00 0.00 0.00 0.00 0.00 0.00 0.00 0.00 0.00 0.00 0.00 0.00 0.00 0.00 0.00 0.00 0.00 0.00 0.00 0.00 0.00 0.00 0.00 0.00 0.00 0.00 0.00 0.00 0.00 0.00 0.00 0.00 0.00 0.00 0.00 0.00 0.00 0.00 0.00 0.00 0.00 0.01 0.01 0.00 0.00 0.00 -0.01 0.00 0.00 0.00 0.00 0.00
1.68 1.37 1.05 0.93 0.84 0.84 0.76 0.66 0.31 0.31 0.29 0.20 0.18 0.18 0.40 0.70 0.70 0.62 0.60 0.27 0.27 0.07 -0.00 0.00 0.01 0.01 0.01 0.02 0.01 0.01 0.00 0.00 0.00 0.00 0.00 0.00 0.00 0.00 0.00 0.00 0.00 0.00 0.00 0.00 0.00 0.00 0.00 0.00 0.00 0.00 0.00 0.00 0.00 0.00 0.00 0.00 0.00 0.00 0.00 0.00 0.00 0.00 0.00 0.00 0.00 0.00 0.00 0.00 0.00 0.00 0.00 0.00 0.00 0.00 0.00 0.00 0.00 0.00 0.00 0.00 0.00 0.00 0.00 0.00 0.00 0.00 0.00 0.00 0.00 0.00 0.00 0.00 -0.00 -0.00 0.03 -0.00 -0.00 -0.01 0.00 -0.01 -0.01 -0.00 0.00
1.86 1.72 1.00 0.82 0.67 0.67 0.62 0.50 0.37 0.37 0.29 0.18 0.14 0.14 0.28 0.74 0.74 0.66 0.46 0.32 0.32 0.19 0.01 0.00 0.01 0.01 0.01 0.01 0.03 0.03 0.00 0.00 0.01 0.01 0.00 0.00 0.00 0.00 0.00 0.00 0.00 0.00 0.00 0.00 0.00 0.00 0.00 0.00 0.00 0.00 0.00 0.00 0.00 0.00 0.00 0.00 0.00 0.00 0.00 0.00 0.00 0.00 0.00 0.00 0.00 0.00 0.00 0.00 0.00 0.00 0.00 0.00 0.00 0.00 0.00 0.00 0.00 0.00 0.00 0.00 0.00 0.00 0.00 0.00 0.00 0.00 0.00 0.00 0.00 0.00 0.00 0.00 0.00 0.00 0.00 -0.02 -0.02 -0.03 -0.03 -0.04 -0.04 -0.01 -0.00
1.78 1.79 1.25 0.87 0.60 0.60 0.53 0.39 0.37 0.37 0.29 0.22 0.10 0.10 0.21 0.73 0.73 0.66 0.52 0.26 0.26 0.12 0.00 0.00 0.01 0.01 0.01 0.01 0.01 0.01 0.00 0.00 0.00 0.00 0.01 0.00 0.00 0.00 0.00 0.00 0.00 0.00 0.00 0.00 0.00 0.00 0.00 0.00 0.00 0.00 0.00 0.00 0.00 0.00 0.00 0.00 0.00 0.00 0.00 0.00 0.00 0.00 0.00 0.00 0.00 0.00 0.00 0.00 0.00 0.00 0.00 0.00 0.00 0.00 0.00 0.00 0.00 0.00 0.00 0.00 0.00 0.00 0.00 0.00 0.00 0.00 0.00 0.00 0.00 0.00 0.00 0.00 0.00 0.00 0.00 0.03 0.03 -0.04 -0.10 -0.16 -0.16 -0.04 -0.01
2.00 1.84 1.30 1.22 1.05 1.05 0.49 0.41 0.40 0.40 0.32 0.29 0.09 0.09 0.15 0.57 0.57 0.69 0.59 0.29 0.29 0.11 0.03 0.00 0.00 0.00 0.01 0.01 0.00 0.00 0.00 0.00 0.00 0.00 0.00 0.00 0.00 0.00 0.00 0.00 0.00 0.00 0.00 0.00 0.00 0.00 0.00 0.00 0.00 0.00 0.00 0.00 0.00 0.00 0.00 0.00 0.00 0.00 0.00 0.00 0.00 0.00 0.00 0.00 0.00 0.00 0.00 0.00 0.00 0.00 0.00 0.00 0.00 0.00 0.00 0.00 0.00 0.00 0.00 0.00 0.00 0.00 0.00 0.00 0.00 0.00 0.00 0.00 0.00 0.00 0.00 0.00 0.00 0.00 0.00 0.02 0.02 0.05 -0.07 -0.13 -0.13 -0.16 -0.03
2.25 2.16 1.40 1.56 1.29 1.29 0.53 0.38 0.36 0.36 0.39 0.36 0.11 0.11 0.13 0.20 0.20 0.63 0.57 0.35 0.35 0.13 0.05 0.00 0.00 0.00 0.01 0.01 0.00 0.00 0.00 0.00 0.00 0.00 0.00 0.00 0.00 0.00 0.00 0.00 0.00 0.00 0.00 0.00 0.00 0.00 0.00 0.00 0.00 0.00 0.00 0.00 0.00 0.00 0.00 0.00 0.00 0.00 0.00 0.00 0.00 0.00 0.00 0.00 0.00 0.00 0.00 0.00 0.00 0.00 0.00 0.00 0.00 0.00 0.00 0.00 0.00 0.00 0.00 0.00 0.00 0.00 0.00 0.00 0.00 0.00 0.00 0.00 0.00 0.00 0.00 0.00 0.00 0.00 0.00 0.02 0.02 0.05 0.04 -0.00 -0.00 -0.14 -0.16
3.07 2.79 2.54 2.12 1.56 1.56 0.78 0.35 0.40 0.40 0.41 0.32 0.17 0.17 0.11 0.14 0.14 0.47 0.47 0.52 0.52 0.15 0.05 0.00 0.00 0.00 0.00 0.00 0.00 0.00 0.00 0.00 0.00 0.00 0.00 0.00 0.00 0.00 0.00 0.00 0.00 0.00 0.00 0.00 0.00 0.00 0.00 0.00 0.00 0.00 0.00 0.00 0.00 0.00 0.00 0.00 0.00 0.00 0.00 0.00 0.00 0.00 0.00 0.00 0.00 0.00 0.00 0.00 0.00 0.00 0.00 0.00 0.00 0.00 0.00 0.00 0.00 0.00 0.00 0.00 0.00 0.00 0.00 0.00 0.00 0.00 0.00 0.00 0.00 0.00 0.00 0.00 0.00 0.00 0.00 0.00 0.00 0.06 0.04 0.02 0.02 -0.09 -0.17
3.18 2.82 3.12 2.82 2.20 2.20 1.21 0.50 0.39 0.39 0.42 0.30 0.15 0.15 0.10 0.13 0.13 0.27 0.28 0.49 0.49 0.13 0.04 0.01 0.00 0.00 0.00 0.00 0.00 0.00 0.00 0.00 0.00 0.00 0.00 0.00 0.00 0.00 0.00 0.00 0.00 0.00 0.00 0.00 0.00 0.00 0.00 0.00 0.00 0.00 0.00 0.00 0.00 0.00 0.00 0.00 0.00 0.00 0.00 0.00 0.00 0.00 0.00 0.00 0.00 0.00 0.00 0.00 0.00 0.00 0.00 0.00 0.00 0.00 0.00 0.00 0.00 0.00 0.00 0.00 0.00 0.00 0.00 0.00 0.00 0.00 0.00 0.00 0.00 0.00 0.00 0.00 0.00 0.00 0.00 0.00 0.00 0.02 0.04 0.02 0.02 0.01 -0.02
2.30 2.01 2.31 3.03 2.88 2.88 1.72 1.03 0.64 0.64 0.58 0.33 0.20 0.20 0.08 0.17 0.17 0.25 0.23 0.38 0.38 0.12 0.02 0.03 0.00 0.00 0.00 0.00 0.00 0.00 0.00 0.00 0.00 0.00 0.00 0.00 0.00 0.00 0.00 0.00 0.00 0.00 0.00 0.00 0.00 0.00 0.00 0.00 0.00 0.00 0.00 0.00 0.00 0.00 0.00 0.00 0.00 0.00 0.00 0.00 0.00 0.00 0.00 0.00 0.00 0.00 0.00 0.00 0.00 0.00 0.00 0.00 0.00 0.00 0.00 0.00 0.00 0.00 0.00 0.00 0.00 0.00 0.00 0.00 0.00 0.00 0.00 0.00 0.00 0.00 0.00 0.00 0.00 0.00 0.00 0.00 0.00 0.03 0.07 0.01 0.01 0.02 0.02
1.57 1.57 1.68 2.54 3.11 3.11 2.84 1.63 1.08 1.08 0.67 0.47 0.26 0.26 0.05 0.12 0.12 0.23 0.37 0.36 0.36 0.08 0.02 0.01 0.00 0.00 0.00 0.00 0.00 0.00 0.00 0.00 0.00 0.00 0.00 0.00 0.00 0.00 0.00 0.00 0.00 0.00 0.00 0.00 0.00 0.00 0.00 0.00 0.00 0.00 0.00 0.00 0.00 0.00 0.00 0.00 0.00 0.00 0.00 0.00 0.00 0.00 0.00 0.00 0.00 0.00 0.00 0.00 0.00 0.00 0.00 0.00 0.00 0.00 0.00 0.00 0.00 0.00 0.00 0.00 0.00 0.00 0.00 0.00 0.00 0.00 0.00 0.00 0.00 0.00 0.00 0.00 0.00 0.00 0.00 0.00 0.00 0.04 0.06 0.03 0.03 0.02 0.02
1.33 1.50 1.41 1.66 2.33 2.33 2.70 2.05 1.47 1.47 0.73 0.58 0.35 0.35 0.05 0.03 0.03 0.12 0.42 0.44 0.44 0.26 0.01 0.00 0.00 0.00 0.00 0.00 0.00 0.00 0.00 0.00 0.00 0.00 0.00 0.00 0.00 0.00 0.00 0.00 0.00 0.00 0.00 0.00 0.00 0.00 0.00 0.00 0.00 0.00 0.00 0.00 0.00 0.00 0.00 0.00 0.00 0.00 0.00 0.00 0.00 0.00 0.00 0.00 0.00 0.00 0.00 0.00 0.00 0.00 0.00 0.00 0.00 0.00 0.00 0.00 0.00 0.00 0.00 0.00 0.00 0.00 0.00 0.00 0.00 0.00 0.00 0.00 0.00 0.00 0.00 0.00 0.00 0.00 0.00 0.00 0.00 0.00 0.06 0.03 0.03 0.01 0.02
1.06 1.21 1.34 1.34 1.62 1.62 2.05 2.10 1.59 1.59 1.31 0.70 0.48 0.48 0.12 0.07 0.07 0.09 0.30 0.41 0.41 0.39 0.01 0.00 0.00 0.00 0.00 0.00 0.00 0.00 0.00 0.00 0.00 0.00 0.00 0.00 0.00 0.00 0.00 0.00 0.00 0.00 0.00 0.00 0.00 0.00 0.00 0.00 0.00 0.00 0.00 0.00 0.00 0.00 0.00 0.00 0.00 0.00 0.00 0.00 0.00 0.00 0.00 0.00 0.00 0.00 0.00 0.00 0.00 0.00 0.00 0.00 0.00 0.00 0.00 0.00 0.00 0.00 0.00 0.00 0.00 0.00 0.00 0.00 0.00 0.00 0.00 0.00 0.00 0.00 0.00 0.00 0.00 0.00 0.00 0.00 0.00 0.00 0.04 0.04 0.04 0.01 0.03
1.22 1.01 1.28 1.38 1.42 1.42 1.47 1.75 1.60 1.60 1.37 0.80 0.57 0.57 0.45 0.27 0.27 0.15 0.23 0.37 0.37 0.51 0.04 0.02 0.01 0.01 0.01 0.02 0.00 0.00 0.00 0.00 0.00 0.00 0.00 0.00 0.00 0.00 0.00 0.00 0.00 0.00 0.00 0.00 0.00 0.00 0.00 0.00 0.00 0.00 0.00 0.00 0.00 0.00 0.00 0.00 0.00 0.00 0.00 0.00 0.00 0.00 0.00 0.00 0.00 0.00 0.00 0.00 0.00 0.00 0.00 0.00 0.00 0.00 0.00 0.00 0.00 0.00 0.00 0.00 0.00 0.00 0.00 0.00 0.00 0.00 0.00 0.00 0.00 0.00 0.00 0.00 0.00 0.00 0.00 0.00 0.00 0.00 0.04 0.08 0.08 0.01 0.03
1.11 1.00 1.08 1.30 1.40 1.40 1.30 1.12 1.42 1.42 1.38 0.93 0.64 0.64 0.72 0.51 0.51 0.45 0.44 0.56 0.56 0.64 0.33 0.04 0.02 0.02 0.00 0.01 0.00 0.00 0.00 0.00 0.00 0.00 0.00 0.00 0.00 0.00 0.00 0.00 0.00 0.00 0.00 0.00 0.00 0.00 0.00 0.00 0.00 0.00 0.00 0.00 0.00 0.00 0.00 0.00 0.00 0.00 -0.00 -0.00 -0.00 0.00 0.00 0.00 0.00 0.00 0.00 0.00 0.00 0.00 0.00 0.00 0.00 0.00 0.00 0.00 0.00 0.00 0.00 0.00 0.00 0.00 0.00 0.00 0.00 0.00 0.00 0.00 0.00 0.00 0.00 0.00 0.00 0.00 -0.00 0.00 0.00 0.00 0.03 0.08 0.08 0.07 0.02
0.98 0.91 0.99 1.09 1.28 1.28 1.18 0.99 0.82 0.82 0.88 1.05 0.85 0.85 0.88 0.71 0.71 0.67 0.59 0.65 0.65 0.67 0.33 0.08 0.03 0.03 -0.01 -0.03 0.00 0.00 0.00 0.00 0.00 0.00 0.00 0.00 0.00 0.00 0.00 0.00 0.00 0.00 0.00 0.00 0.00 0.00 0.00 0.00 0.00 0.00 0.00 0.00 0.00 0.00 0.00 0.00 0.00 -0.00 -0.00 -0.00 -0.00 0.00 0.00 0.00 0.00 0.00 0.00 0.00 0.00 0.00 0.00 0.00 0.00 0.00 0.00 0.00 0.00 0.00 0.00 0.00 0.00 0.00 0.00 0.00 0.00 0.00 0.00 0.00 0.00 0.00 0.00 0.00 0.00 0.00 -0.00 -0.19 -0.19 -0.03 -0.01 0.06 0.06 0.07 0.03
0.89 0.93 0.94 0.95 1.09 1.09 1.07 0.93 0.57 0.57 0.47 0.43 0.39 0.39 0.69 0.82 0.82 0.60 0.54 0.58 0.58 0.58 0.32 0.05 -0.01 -0.01 -0.04 -0.02 0.00 0.00 0.00 0.00 0.00 0.00 0.00 0.00 0.00 0.00 0.00 0.00 0.00 0.00 0.00 0.00 0.00 0.00 0.00 0.00 0.00 0.00 0.00 0.00 0.00 0.00 0.00 0.00 0.00 0.00 0.00 0.00 0.00 0.00 0.00 0.00 0.00 0.00 0.00 0.00 0.00 0.00 0.00 0.00 0.00 0.00 0.00 0.00 0.00 0.00 0.00 0.00 0.00 0.00 -0.00 -0.00 0.00 0.00 0.00 0.00 0.00 0.00 0.00 0.00 -0.00 -0.00 -0.00 0.00 0.00 -0.00 -0.00 0.00 0.00 0.05 0.03
0.88 1.00 1.05 0.95 1.02 1.02 0.99 0.86 0.49 0.49 0.35 0.26 0.29 0.29 0.52 0.67 0.67 0.51 0.39 0.40 0.40 0.47 0.29 0.13 -0.02 -0.02 -0.01 -0.00 -0.01 -0.01 -0.00 0.00 0.00 0.00 0.00 0.00 0.00 0.00 0.00 0.00 0.00 0.00 0.00 0.00 0.00 0.00 0.00 0.00 0.00 0.00 0.00 0.00 0.00 0.00 0.00 0.00 0.00 0.00 0.00 0.00 0.00 0.00 -0.00 -0.00 0.00 0.00 0.00 0.00 0.00 0.00 0.00 0.00 0.00 0.00 0.00 0.00 0.00 0.00 0.00 0.00 0.00 0.00 -0.00 0.00 0.00 0.00 -0.00 0.00 0.00 0.00 0.00 0.00 0.00 0.00 -0.00 -0.00 -0.00 0.00 0.00 0.00 0.00 0.01 0.01
0.75 1.19 1.21 1.21 1.08 1.08 0.98 0.86 0.38 0.38 0.31 0.32 0.25 0.25 0.45 0.52 0.52 0.44 0.38 0.32 0.32 0.35 0.27 0.13 0.03 0.03 0.01 -0.00 0.00 0.00 0.00 0.00 0.00 0.00 0.00 0.00 0.00 0.00 0.00 0.00 0.00 0.00 0.00 0.00 0.00 0.00 0.00 0.00 0.00 0.00 0.00 0.00 0.00 0.00 0.00 0.00 0.00 0.00 0.00 0.00 0.00 0.00 -0.00 0.00 0.00 0.00 0.00 0.00 0.00 0.00 0.00 0.00 0.00 0.00 0.00 0.00 0.00 0.00 0.00 0.00 0.00 0.00 0.00 -0.00 0.00 0.00 0.00 0.00 0.00 0.00 0.00 0.00 -0.00 -0.00 -0.00 -0.00 -0.00 -0.00 0.00 0.00 0.00 0.00 0.00
0.45 1.04 1.19 1.23 1.32 1.32 1.14 0.93 0.44 0.44 0.30 0.36 0.25 0.25 0.41 0.46 0.46 0.40 0.34 0.32 0.32 0.20 0.21 0.12 0.04 0.04 0.01 -0.01 0.00 0.00 0.00 0.00 0.00 0.00 0.00 0.00 0.00 0.00 0.00 0.00 0.00 0.00 0.00 0.00 0.00 0.00 0.00 0.00 0.00 0.00 0.00 0.00 0.00 0.00 0.00 0.00 0.00 0.00 0.00 -0.00 -0.00 -0.00 -0.00 0.00 0.00 0.00 0.00 0.00 0.00 0.00 0.00 0.00 0.00 0.00 0.00 0.00 0.00 0.00 0.00 0.00 0.00 0.00 -0.01 -0.01 -0.01 -0.01 -0.00 -0.00 -0.03 -0.03 -0.00 0.00 0.00 0.00 0.00 -0.00 -0.00 -0.02 -0.00 -0.01 -0.01 -0.00 0.00
0.09 0.49 0.92 1.06 1.15 1.15 1.48 1.19 0.89 0.89 0.47 0.43 0.40 0.40 0.36 0.32 0.32 0.31 0.30 0.32 0.32 0.19 0.18 0.16 0.07 0.07 0.00 -0.00 0.00 0.00 0.00 0.00 0.00 0.00 0.00 0.00 0.00 0.00 0.00 0.00 0.00 0.00 0.00 0.00 0.00 0.00 0.00 0.00 0.00 0.00 0.00 0.00 0.00 0.00 0.00 0.00 0.00 0.00 0.00 -0.00 -0.00 -0.00 0.00 0.00 0.00 0.00 0.00 0.00 0.00 0.00 0.00 0.00 0.00 0.00 0.00 0.00 0.00 0.00 0.00 0.00 0.00 0.00 0.00 -0.01 -0.01 -0.01 -0.07 -0.14 -0.12 -0.12 -0.07 -0.07 0.00 0.00 0.00 -0.14 -0.14 -0.24 -0.05 -0.15 -0.15 -0.04 -0.04
-1.07 -0.38 0.46 0.45 0.60 0.60 1.30 1.48 1.48 1.48 0.94 0.56 0.45 0.45 0.30 0.22 0.22 0.20 0.27 0.27 0.27 0.32 0.17 0.20 0.18 0.18 0.15 0.12 0.06 0.06 0.02 0.00 0.00 0.00 0.00 0.00 0.00 0.00 0.00 0.00 0.00 0.00 0.00 0.00 0.00 0.00 0.00 0.00 0.00 0.00 0.00 0.00 0.00 0.00 0.00 0.00 0.00 0.00 0.00 0.00 0.00 0.00 0.00 0.00 0.00 0.00 0.00 0.00 0.00 0.00 0.00 0.00 0.00 0.00 0.00 0.00 0.00 0.00 0.00 0.00 0.00 0.00 0.00 0.00 0.01 0.01 0.00 -0.02 -0.02 -0.02 -0.08 -0.05 -0.22 -0.22 -0.17 -0.20 -0.20 -0.20 -0.23 -0.17 -0.17 -0.10 -0.13
-1.50 -0.94 0.11 0.25 0.29 0.29 1.07 1.34 1.33 1.33 0.94 0.66 0.39 0.39 0.33 0.24 0.24 0.23 0.29 0.29 0.29 0.35 0.48 0.29 0.22 0.22 0.19 0.16 0.04 0.04 0.02 0.00 0.01 0.01 0.00 0.00 0.00 0.00 0.00 0.00 0.00 0.00 0.00 0.00 0.00 0.00 0.00 0.00 0.00 0.00 0.00 0.00 0.00 0.00 0.00 0.00 0.00 0.00 0.00 0.00 0.00 0.00 0.00 0.00 0.00 0.00 0.00 0.00 0.00 0.00 0.00 0.00 0.00 0.00 0.00 0.00 0.00 0.00 0.00 0.00 0.00 0.00 0.00 0.00 0.01 0.01 0.01 0.01 0.00 0.00 -0.00 0.01 -0.21 -0.21 -0.37 -0.26 -0.26 -0.18 -0.20 -0.06 -0.06 0.01 0.01
-1.89 -1.39 -0.37 -0.02 0.23 0.23 0.80 0.79 0.89 0.89 1.12 0.77 0.50 0.50 0.26 0.29 0.29 0.28 0.29 0.41 0.41 0.42 0.47 0.48 0.37 0.37 0.25 0.13 0.04 0.04 0.00 0.00 0.03 0.03 0.02 0.01 0.01 0.00 0.00 0.00 0.00 0.00 0.00 0.00 0.00 0.00 0.00 0.00 0.00 0.00 0.00 0.00 0.00 0.00 0.00 0.00 0.00 0.00 0.00 0.00 0.00 0.00 0.00 0.00 0.00 0.00 0.00 0.00 0.00 0.00 0.00 0.00 0.00 0.00 0.00 0.00 0.00 0.00 0.00 0.00 0.00 0.00 0.00 0.00 0.01 0.01 0.00 0.00 0.00 0.00 0.04 0.04 0.01 0.01 -0.17 -0.08 -0.08 -0.07 -0.06 -0.03 -0.03 0.01 0.05
-2.62 -2.01 -0.81 -0.31 0.08 0.08 0.41 0.62 0.68 0.68 0.63 0.74 0.63 0.63 0.46 0.36 0.36 0.41 0.38 0.48 0.48 0.50 0.41 0.50 0.45 0.45 0.39 0.30 0.06 0.06 0.03 0.06 0.07 0.07 0.03 0.01 0.01 0.01 0.00 0.00 0.00 0.00 0.00 0.00 0.00 0.00 0.00 0.00 0.00 0.00 0.00 0.00 0.00 0.00 0.00 0.00 0.00 0.00 0.00 0.00 0.00 0.00 0.00 0.00 0.00 0.00 0.00 0.00 0.00 0.00 0.00 0.00 0.00 0.00 0.00 0.00 0.00 0.00 0.00 0.00 0.00 0.00 0.00 0.00 0.00 0.00 0.00 0.00 0.02 0.02 0.04 0.03 0.02 0.02 0.01 0.01 0.01 0.01 0.03 0.01 0.01 0.02 0.02
-3.21 -2.64 -2.00 -0.66 -0.13 -0.13 -0.08 0.56 0.63 0.63 0.60 0.28 0.30 0.30 0.44 0.37 0.37 0.43 0.44 0.37 0.37 0.26 0.32 0.32 0.47 0.47 0.44 0.42 0.20 0.20 0.15 0.06 0.01 0.01 0.01 0.00 0.00 -0.00 -0.01 0.00 0.00 0.00 0.00 0.00 0.00 0.00 0.00 0.00 0.00 0.00 0.00 0.00 0.00 0.00 0.00 0.00 0.00 0.00 0.00 0.00 0.00 0.00 0.00 0.00 0.00 0.00 0.00 0.00 0.00 0.00 0.00 0.00 0.00 0.00 0.00 0.00 0.00 0.00 0.00 0.00 0.00 0.00 0.00 0.00 0.00 0.00 0.00 0.00 0.01 0.01 0.02 0.04 0.03 0.03 0.04 0.07 0.07 0.02 0.05 0.03 0.03 0.02 0.02
-2.99 -2.96 -2.57 -1.12 -0.56 -0.56 -0.71 0.30 0.52 0.52 0.61 0.39 0.06 0.06 -0.01 0.28 0.28 0.40 0.42 0.36 0.36 0.15 0.16 0.23 0.31 0.31 0.42 0.46 0.38 0.38 0.20 0.05 0.01 0.01 0.00 0.00 0.00 0.00 0.00 0.00 0.00 0.00 0.00 0.00 0.00 0.00 0.00 0.00 0.00 0.00 0.00 0.00 0.00 0.00 0.00 0.00 0.00 0.00 0.00 0.00 0.00 0.00 0.00 0.00 0.00 0.00 0.00 0.00 0.00 0.00 0.00 0.00 0.00 0.00 0.00 0.00 0.00 0.00 0.00 0.00 0.00 0.00 0.00 0.00 0.00 0.00 0.00 0.00 0.02 0.02 0.01 0.02 0.05 0.05 0.06 0.03 0.03 0.02 0.02 0.02 0.02 0.02 0.01
-2.05 -2.51 -2.57 -1.70 -1.67 -1.67 -1.33 -0.11 0.28 0.28 0.50 0.55 0.22 0.22 -0.07 -0.15 -0.15 0.15 0.29 0.35 0.35 0.15 0.10 0.13 0.21 0.21 0.28 0.37 0.39 0.39 0.20 0.03 0.00 0.00 -0.01 -0.00 -0.00 -0.00 0.01 -0.01 -0.01 -0.00 -0.00 0.00 0.00 0.00 0.00 0.00 0.00 0.00 0.00 0.00 0.01 0.01 0.01 0.01 0.01 0.00 0.00 0.00 0.00 0.00 0.00 0.00 0.00 0.00 0.00 0.00 0.00 0.00 0.00 0.00 0.00 0.00 0.00 0.00 0.00 0.00 0.00 0.00 0.00 0.00 0.00 0.00 0.00 0.00 0.00 0.00 0.02 0.02 0.00 0.02 0.02 0.02 0.04 0.01 0.01 0.01 0.02 0.01 0.01 0.01 0.01
-1.30 -1.68 -2.05 -1.77 -1.65 -1.65 -1.51 -1.23 -0.07 -0.07 0.28 0.43 0.36 0.36 0.03 -0.22 -0.22 -0.24 -0.13 -0.26 -0.26 -0.08 0.05 0.07 0.11 0.11 0.21 0.27 0.33 0.33 0.09 0.00 -0.02 -0.02 -0.01 -0.01 -0.01 -0.01 -0.01 0.00 0.00 0.00 -0.00 -0.00 -0.00 -0.00 0.00 0.00 0.00 0.00 0.00 0.00 0.00 0.00 0.00 0.01 0.01 0.01 0.01 0.00 0.00 0.00 0.00 0.00 0.00 0.00 0.00 0.00 0.00 0.00 0.00 0.00 0.00 0.00 0.00 0.00 0.00 0.00 0.00 0.00 0.00 0.00 0.00 0.00 0.00 0.00 0.00 0.00 0.01 0.01 0.00 0.01 0.02 0.02 0.03 0.00 0.00 0.01 0.01 0.01 0.01 0.01 0.00
-0.79 -1.05 -0.92 -1.29 -1.36 -1.36 -1.29 -1.22 -0.59 -0.59 -0.07 0.22 0.40 0.40 0.31 -0.08 -0.08 -0.32 -0.36 -0.12 -0.12 -0.11 -0.07 -0.03 0.04 0.04 0.17 0.20 0.20 0.20 0.09 -0.02 -0.02 -0.02 -0.02 -0.00 -0.00 -0.00 -0.00 -0.00 -0.00 0.01 0.01 0.00 0.00 0.00 0.00 0.00 0.00 0.00 0.00 0.00 0.00 0.00 0.00 0.00 0.00 0.00 0.01 0.01 0.01 0.02 0.01 0.00 0.00 0.00 0.00 0.00 0.00 0.00 0.00 0.00 0.00 0.00 0.00 0.00 0.00 0.00 0.00 0.00 0.00 0.00 0.00 0.00 0.00 0.00 0.00 0.00 0.01 0.01 0.00 0.01 0.02 0.02 0.03 0.01 0.01 0.01 0.01 0.01 0.01 0.02 0.01
-0.50 -0.68 -0.63 -0.79 -1.00 -1.00 -1.02 -1.04 -0.84 -0.84 -0.46 -0.10 0.33 0.33 0.37 0.18 0.18 -0.09 0.06 0.05 0.05 0.05 -0.11 -0.13 -0.06 -0.06 0.02 0.14 0.13 0.13 0.04 -0.02 -0.02 -0.02 -0.01 -0.00 -0.00 -0.00 -0.00 0.04 0.04 0.03 0.00 0.00 0.00 0.00 0.00 0.00 0.00 0.00 0.00 0.00 0.00 0.00 0.00 0.00 0.00 0.00 0.00 0.00 0.00 0.02 0.04 0.02 0.00 0.00 0.00 0.00 0.00 0.00 0.00 0.00 0.00 0.00 0.00 0.00 0.00 0.00 0.00 0.00 0.00 0.00 0.00 0.00 0.00 0.00 0.00 0.00 0.01 0.01 0.00 0.00 0.02 0.02 0.03 0.01 0.01 0.00 0.01 0.02 0.02 0.02 0.01
-0.47 -0.48 -0.50 -0.55 -0.81 -0.81 -0.78 -0.76 -0.81 -0.81 -0.60 -0.30 -0.08 -0.08 0.25 0.30 0.30 0.24 0.08 0.01 0.01 0.02 0.14 0.02 -0.12 -0.12 -0.07 0.06 0.06 0.06 -0.00 -0.01 -0.01 -0.01 -0.00 -0.00 -0.00 -0.00 0.01 0.02 0.02 0.00 -0.00 -0.00 -0.00 -0.00 0.00 0.00 0.00 0.00 0.00 0.00 0.00 0.00 0.00 0.00 0.00 0.00 0.00 0.00 0.00 0.00 0.03 0.04 0.02 0.02 0.02 0.01 0.00 0.00 0.00 0.00 0.00 0.00 0.00 0.00 0.00 0.00 0.00 0.00 0.00 0.00 0.00 0.00 0.00 0.00 0.00 0.00 0.00 0.00 0.00 0.00 0.00 0.00 0.02 0.00 0.00 0.00 0.01 0.01 0.01 0.02 0.01
-0.13 -0.30 -0.41 -0.46 -0.56 -0.56 -0.63 -0.62 -0.60 -0.60 -0.65 -0.48 -0.16 -0.16 0.27 0.30 0.30 0.31 0.25 -0.02 -0.02 -0.03 0.07 0.30 0.20 0.20 -0.04 -0.04 -0.06 -0.06 -0.03 -0.02 -0.02 -0.02 -0.00 -0.01 -0.01 -0.02 0.00 0.00 0.00 0.00 0.00 -0.00 0.00 0.00 0.00 0.00 0.00 0.00 0.00 0.00 0.00 0.00 0.00 0.00 0.00 0.00 0.00 0.00 0.00 0.00 0.00 0.01 0.01 0.01 0.00 0.01 0.02 0.02 0.01 0.02 0.01 0.01 0.00 0.00 0.00 0.00 0.00 0.00 0.00 0.00 0.00 0.00 0.00 0.00 0.00 0.00 0.01 0.01 0.00 0.00 0.00 0.00 0.03 0.03 0.03 0.00 0.01 0.01 0.01 0.02 0.02
0.05 -0.07 -0.17 -0.28 -0.36 -0.36 -0.42 -0.46 -0.49 -0.49 -0.66 -0.55 -0.26 -0.26 0.38 0.35 0.35 0.33 0.26 0.01 0.01 -0.04 0.00 0.12 0.40 0.40 0.22 -0.01 -0.10 -0.10 -0.06 -0.04 -0.01 -0.01 -0.02 -0.01 -0.01 -0.01 -0.01 0.00 0.00 0.00 0.00 -0.00 0.00 0.00 0.00 0.00 0.00 0.00 0.00 0.00 0.00 0.00 0.00 0.00 0.00 0.00 0.00 0.00 0.00 0.00 0.00 0.00 0.00 0.00 0.00 0.00 0.00 0.00 0.02 0.00 0.02 0.02 0.02 0.00 0.00 0.01 0.00 0.00 0.00 0.00 0.00 0.00 0.00 0.00 0.00 0.00 0.01 0.01 0.00 0.00 0.00 0.00 0.02 0.03 0.03 0.01 0.01 0.01 0.01 0.02 0.02
0.08 0.07 0.02 -0.05 -0.17 -0.17 -0.22 -0.26 -0.32 -0.32 -0.48 -0.55 -0.40 -0.40 -0.06 0.44 0.44 0.44 0.43 0.39 0.39 0.18 0.11 0.10 0.32 0.32 0.30 0.06 -0.01 -0.01 -0.10 -0.06 -0.02 -0.02 -0.02 -0.01 -0.01 -0.01 0.01 0.00 0.00 -0.02 -0.03 -0.02 -0.00 -0.00 0.00 -0.00 0.00 0.00 0.00 0.00 0.00 0.00 0.00 0.00 0.00 0.00 0.00 0.00 0.00 0.00 0.00 0.00 0.00 0.00 0.00 0.00 0.00 0.00 0.00 0.00 0.00 0.00 0.00 0.00 0.00 0.01 0.01 0.01 0.01 0.01 0.00 0.00 0.00 0.00 0.00 0.00 0.00 0.00 0.00 0.00 0.00 0.00 0.03 0.03 0.03 0.02 0.00 0.01 0.01 0.02 0.02
0.13 0.14 0.12 0.11 0.05 0.05 -0.04 -0.10 -0.11 -0.11 -0.33 -0.41 -0.45 -0.45 -0.24 0.42 0.42 0.68 0.73 0.69 0.69 0.51 0.33 0.25 0.17 0.17 0.21 0.24 0.14 0.14 -0.12 -0.11 -0.05 -0.05 -0.03 -0.03 -0.03 -0.03 0.01 0.03 0.03 -0.01 -0.01 -0.02 -0.00 -0.00 0.00 0.00 0.03 0.03 0.00 0.00 0.00 0.00 0.00 0.00 0.00 0.00 0.00 0.00 0.00 0.00 0.00 0.00 0.00 0.00 0.00 0.00 0.00 0.00 0.00 0.00 0.00 0.00 0.00 0.00 0.00 0.00 0.00 0.00 0.00 0.00 0.00 0.00 0.00 0.00 0.01 0.00 0.00 0.00 0.00 0.00 0.00 0.00 0.00 0.02 0.02 0.02 0.00 0.01 0.01 0.01 0.03
0.17 0.16 0.16 0.15 0.15 0.15 0.10 0.07 0.03 0.03 0.02 -0.19 -0.28 -0.28 -0.28 0.25 0.25 0.71 0.87 0.96 0.96 0.64 0.57 0.52 0.39 0.39 0.29 0.38 0.33 0.33 0.27 -0.08 -0.06 -0.06 -0.04 -0.03 -0.03 -0.03 -0.01 0.01 0.01 0.00 0.00 -0.00 0.02 0.02 0.00 0.01 0.00 0.00 0.00 0.00 0.00 0.00 0.00 0.00 0.00 0.00 0.00 0.00 0.00 0.00 0.00 0.00 0.00 0.00 0.00 0.00 0.00 0.00 0.00 0.00 0.00 0.00 0.00 0.00 0.00 0.00 0.00 0.00 0.00 0.00 0.00 0.00 0.00 0.00 0.00 0.00 0.01 0.01 0.00 0.01 0.00 0.00 0.01 0.01 0.01 0.03 0.00 0.01 0.01 0.01 0.03
0.16 0.19 0.19 0.17 0.17 0.17 0.18 0.16 0.13 0.13 0.14 0.08 -0.02 -0.02 0.11 0.08 0.08 0.37 0.65 0.95 0.95 0.92 0.97 0.95 0.82 0.82 0.39 0.51 0.50 0.50 0.43 0.05 -0.03 -0.03 -0.03 -0.03 -0.03 -0.02 -0.00 0.00 0.00 0.02 0.02 0.01 0.01 0.01 0.00 0.00 0.00 0.00 0.00 0.00 0.00 0.00 0.00 0.00 0.00 0.00 0.00 0.00 0.00 0.00 0.00 0.00 0.00 0.00 0.00 0.00 0.00 0.00 0.00 0.00 0.00 0.00 0.00 0.00 0.00 0.00 0.00 0.00 0.00 0.00 0.00 0.00 0.00 0.00 0.00 0.00 0.00 0.00 0.00 0.00 0.00 0.00 0.00 0.01 0.01 0.02 0.02 0.02 0.02 0.01 0.02
0.13 0.15 0.20 0.20 0.19 0.19 0.21 0.20 0.19 0.19 0.19 0.18 0.17 0.17 0.21 0.17 0.17 0.28 0.48 0.77 0.77 1.15 1.41 1.25 1.09 1.09 1.12 0.86 0.66 0.66 0.54 0.36 0.09 0.09 0.03 0.01 0.01 0.02 0.02 0.03 0.03 0.01 0.01 0.00 0.01 0.01 0.00 0.00 0.00 0.00 0.00 0.00 0.00 0.00 0.00 0.00 0.00 0.00 0.00 0.00 0.00 0.00 0.00 0.00 0.00 0.00 0.00 0.00 0.00 0.00 0.00 0.00 0.00 0.00 0.00 0.00 0.00 0.00 0.00 0.00 0.00 0.00 0.00 0.00 0.00 0.00 0.00 0.00 0.00 0.00 0.00 0.00 0.00 0.00 0.00 0.00 0.00 0.01 0.02 0.02 0.02 0.02 0.02
0.10 0.13 0.18 0.20 0.21 0.21 0.21 0.24 0.26 0.26 0.27 0.26 0.25 0.25 0.26 0.20 0.20 0.26 0.44 0.67 0.67 0.97 1.53 1.48 1.23 1.23 1.37 1.16 1.07 1.07 0.79 0.56 0.38 0.38 0.24 0.10 0.10 0.13 0.05 0.05 0.05 0.02 0.01 0.00 0.00 0.00 0.00 0.00 0.00 0.00 0.00 0.00 0.02 0.02 0.02 0.00 0.00 0.00 0.00 0.00 0.00 0.00 0.00 0.00 0.00 0.00 0.00 0.00 0.00 0.00 0.00 0.00 0.00 0.00 0.00 0.00 0.00 0.00 0.00 0.00 0.00 0.00 0.00 0.00 0.00 0.00 0.00 0.00 0.00 0.00 0.00 0.00 0.00 0.00 0.00 0.00 0.00 0.00 0.04 0.02 0.02 0.02 0.01